Hourly Data Report for February 19, 2006

TORONTO CITY
ONTARIO

43°40'00.000" N
79°24'00.000" W
112.50 m
6158355
71508
XTO

Download Data

Hourly Data (February 2006)
Hourly Data Report for February 19, 2006
TIME
LST
Temp Definition
°C
Dew Point Definition
°C
Rel Hum Definition
%
Precip. Amount Definition
mm

Wind Dir Definition
10's deg

Wind Spd Definition
km/h
Visibility Definition
km
Stn Press Definition
kPa
Hmdx Definition


Wind Chill Definition


Weather Definition


00:00 -10.8 -16.8 61   LegendMM LegendMM   101.45     LegendNANA
01:00 -10.7 -16.5 62   LegendMM LegendMM   101.45     LegendNANA
02:00 -10.7 -16.0 65   LegendMM LegendMM   101.47     LegendNANA
03:00 -11.5 -16.0 69   LegendMM LegendMM   101.45     LegendNANA
04:00 -11.6 -15.8 71   LegendMM LegendMM   101.42     LegendNANA
05:00 -11.2 -16.4 65   LegendMM LegendMM   101.43     LegendNANA
06:00 -11.6 -17.1 64   LegendMM LegendMM   101.42     LegendNANA
07:00 -11.7 -17.3 63   LegendMM LegendMM   101.40     LegendNANA
08:00 -11.1 -16.6 64   LegendMM LegendMM   101.41     LegendNANA
09:00 -9.8 -15.8 62   LegendMM LegendMM   101.40     LegendNANA
10:00 -9.4 -15.4 62   LegendMM LegendMM   101.33     LegendNANA
11:00 -8.2 -15.1 58   LegendMM LegendMM   101.30     LegendNANA
12:00 -7.9 -15.0 57   LegendMM LegendMM   101.27     LegendNANA
13:00 -7.4 -15.5 52   LegendMM LegendMM   101.19     LegendNANA
14:00 -7.0 -15.5 51   LegendMM LegendMM   101.10     LegendNANA
15:00 -7.0 -15.1 52   LegendMM LegendMM   101.02     LegendNANA
16:00 -7.2 -15.1 53   LegendMM LegendMM   100.98     LegendNANA
17:00 -7.3 -15.3 53   LegendMM LegendMM   100.95     LegendNANA
18:00 -7.5 -15.0 55   LegendMM LegendMM   100.90     LegendNANA
19:00 -7.4 -14.2 58   LegendMM LegendMM   100.86     LegendNANA
20:00 -7.7 -14.1 60   LegendMM LegendMM   100.79     LegendNANA
21:00 -7.9 -14.0 62   LegendMM LegendMM   100.72     LegendNANA
22:00 -7.3 -13.2 63   LegendMM LegendMM   100.67     LegendNANA
23:00 -7.2 -13.1 63   LegendMM LegendMM   100.64     LegendNANA

Notes on Data Quality.

Legend

  • E = Estimated
  • M = Missing
  • NA = Not Available*
  • [empty] = Indicates an unobserved value
Date modified: